Theta_e
293 295 297 298 299 300 298 297 297 304 307 310 310 309 309 308 306 306 305 305 305 304 304 304 305 306 307
292 294 296 299 297 295 296 298 296 301 305 308 309 308 307 306 305 303 302 301 301 301 301 301 302 303 303
296 297 296 297 296 295 294 294 296 299 301 305 307 306 305 304 303 301 300 299 298 297 297 297 298 299 301
296 295 296 297 297 295 294 293 294 295 298 302 304 305 304 302 300 298 297 297 296 295 294 294 295 296 298
295 294 294 293 293 294 293 291 290 291 293 293 299 299 299 298 297 297 296 295 294 294 293 293 293 294 295
293 293 293 294 293 292 290 288 287 291 290 288 293 292 293 294 296 295 294 294 293 292 291 291 291 292 293
291 292 291 293 293 291 290 289 288 288 289 285 288 288 293 295 295 294 293 292 291 290 290 290 290 291 292
293 293 293 294 294 293 290 286 287 288 288 283 285 285 291 293 294 292 291 290 290 289 289 290 290 290 291
294 293 293 295 296 290 286 286 284 284 285 285 284 284 286 288 291 291 290 289 289 289 288 289 290 289 287
286 286 287 287 290 293 289 287 283 282 285 284 284 284 281 284 284 284 285 289 288 288 287 288 287 282 282
284 283 283 283 283 284 288 289 285 284 286 285 283 282 281 281 281 281 281 280 279 281 287 287 287 283 279
283 281 281 280 281 281 283 284 285 285 287 285 283 281 280 279 278 278 278 278 278 278 279 284 286 285 284
280 278 278 280 281 281 281 281 281 281 282 282 284 282 282 279 276 276 276 277 277 276 276 277 277 278 278
278 278 279 279 279 280 279 280 279 278 280 281 281 280 277 277 276 276 275 273 275 275 274 275 277 277 276
278 278 279 279 279 279 278 278 277 277 276 277 278 279 278 276 274 274 273 273 272 273 273 272 275 276 276
277 278 277 278 278 278 278 277 276 276 275 275 276 276 276 277 278 272 270 270 271 273 273 269 271 275 277
276 277 277 279 278 276 276 276 275 275 273 273 272 272 270 270 272 279 269 269 268 269 271 271 270 273 276
Wind_Speed
3 2 4 4 3 3 2 2 2 6 9 8 12 11 11 12 13 12 10 10 11 11 12 12 12 13 14
4 4 5 5 3 2 3 2 3 4 5 8 13 16 16 15 12 12 11 11 12 12 12 12 12 12 12
5 3 4 2 2 2 2 1 3 6 7 4 7 13 15 16 15 13 10 11 12 12 10 11 11 11 11
5 4 2 2 2 2 3 2 2 2 4 5 7 14 15 19 16 14 10 10 10 10 9 10 10 11 11
3 3 3 2 2 2 3 1 1 1 2 3 6 6 8 15 13 13 12 11 10 9 9 9 9 9 8
3 3 4 3 3 3 3 3 2 1 2 3 1 9 6 5 14 13 12 11 9 8 7 7 8 8 7
4 4 4 4 4 4 4 3 3 2 3 3 2 8 5 8 15 13 12 11 9 8 6 6 7 8 7
3 2 1 2 4 4 5 4 4 3 3 3 1 2 4 6 15 12 12 10 8 7 6 7 7 8 8
8 6 5 3 4 5 3 6 2 2 1 3 3 3 2 3 7 13 10 9 8 7 6 6 9 10 6
3 5 5 4 7 5 5 6 3 2 3 3 5 4 3 2 3 4 2 10 9 7 7 8 9 4 4
4 2 2 2 3 3 2 4 5 2 6 4 3 3 3 4 2 2 1 2 3 4 5 8 8 6 4
3 2 2 2 3 3 4 5 5 3 8 3 5 3 4 3 3 3 1 2 3 2 3 7 7 7 5
3 2 1 2 2 2 5 8 10 8 5 2 6 7 4 4 4 3 4 1 2 2 2 3 2 3 3
3 4 2 2 3 2 2 3 6 6 8 7 7 6 3 4 3 4 2 3 2 2 2 2 3 3 2
4 4 4 3 4 3 2 2 4 3 4 7 10 11 7 4 4 3 3 3 1 2 3 2 2 1 2
4 4 4 4 4 2 2 4 6 5 5 2 2 4 4 8 10 4 2 3 1 2 2 3 0 1 1
4 4 5 4 5 4 4 5 5 5 3 2 2 3 3 3 2 7 4 1 2 2 2 2 2 1 1
Wind_Direction
241 238 213 199 207 195 229 271 307 329 340 247 182 151 140 130 112 99 87 78 69 62 55 50 42 38 41
221 228 209 211 180 210 246 275 296 302 326 0 208 153 139 132 120 101 92 86 72 63 57 55 50 43 42
227 210 204 178 170 186 200 322 308 312 306 288 154 152 151 138 122 108 100 92 83 75 65 59 55 50 48
217 209 179 189 166 159 215 193 256 293 296 275 231 210 155 126 116 114 115 105 95 84 75 67 57 54 53
194 177 155 165 188 180 210 184 170 232 356 356 114 92 113 107 119 126 121 108 97 85 74 71 67 64 61
171 188 165 177 179 188 164 165 197 204 123 49 103 112 107 111 138 129 123 111 103 88 79 78 77 72 74
176 209 198 204 172 187 190 167 167 161 118 67 16 102 140 135 132 132 121 113 104 97 92 93 84 81 81
152 212 140 245 215 195 190 123 77 71 106 110 86 89 125 124 128 127 118 112 108 96 99 108 97 95 91
99 83 49 339 271 142 152 150 139 152 99 114 155 101 73 106 131 124 123 119 108 99 105 121 100 77 84
73 48 33 2 359 208 164 178 128 136 171 115 143 144 110 45 59 67 75 115 99 102 109 115 109 81 65
105 115 77 23 20 342 283 187 168 147 168 129 144 129 77 122 93 64 41 84 74 40 81 120 123 119 95
120 87 62 27 18 20 18 73 65 104 146 128 130 142 126 114 137 142 84 77 101 90 45 67 115 133 124
112 85 56 97 84 66 66 77 71 58 53 56 132 127 110 117 140 149 143 130 91 112 81 78 78 56 79
115 123 125 69 80 52 68 77 84 66 42 48 82 100 97 80 111 135 109 147 124 104 91 75 73 75 102
128 130 114 107 92 67 56 47 84 94 78 60 73 83 75 110 87 93 119 95 90 121 85 79 61 100 103
113 123 120 119 107 82 71 84 99 94 100 58 86 87 55 49 67 111 56 99 75 86 86 101 40 257 236
123 127 127 141 118 104 94 99 92 96 67 54 56 86 88 97 339 54 122 110 104 57 78 97 154 213 230